Dewpoint
54 53 51 49 46 43 39 37 36 35 37 40 37 33 33 32 34 34 34 33 33 33
54 53 50 49 45 40 38 37 37 41 41 34 32 37 35 33 34 33 32 31 32 33
52 51 49 46 44 40 38 37 41 41 34 34 38 35 33 32 33 31 31 32 31 32
50 48 47 46 45 42 39 41 40 35 36 38 34 32 32 32 31 31 30 31 31 30
46 46 46 44 41 40 40 37 36 40 38 33 30 30 32 31 30 31 30 29 29 29
45 44 41 39 39 37 37 38 37 36 33 30 30 31 32 32 30 30 30 29 29 28
43 41 39 38 37 37 36 35 34 34 31 32 34 33 32 31 30 30 30 29 29 28
41 39 37 35 35 36 35 32 31 33 37 36 34 31 31 31 30 29 28 29 28 26
37 36 35 33 32 32 32 34 38 39 38 37 34 31 31 31 30 30 29 28 27 25
34 33 33 33 34 36 38 40 39 38 37 33 30 29 30 31 31 30 29 28 26 24
34 35 36 37 38 39 39 38 37 34 31 29 29 30 30 30 30 30 28 27 25 24
36 37 37 38 38 39 38 35 31 29 29 28 28 28 28 29 29 29 27 26 24 23
39 40 39 38 36 32 30 29 29 27 27 27 27 28 28 29 29 28 27 25 24 25
33 32 31 30 29 28 27 27 26 26 27 27 27 27 28 29 30 29 28 26 26 25
Wind_Speed
16 17 16 19 20 17 16 15 14 17 13 12 15 12 8 9 6 7 5 7 8 7
16 17 17 14 15 16 17 18 19 20 15 18 16 9 11 4 7 8 8 9 7 7
17 16 16 17 20 23 24 24 20 14 17 14 10 6 3 5 6 9 9 8 9 9
16 15 16 18 18 17 16 15 12 14 14 11 8 5 6 8 10 12 12 11 12 11
12 13 12 10 12 13 14 15 16 14 9 8 7 6 7 12 15 16 14 14 11 14
13 12 13 15 15 15 16 14 9 7 6 7 7 5 13 16 15 13 15 16 16 16
12 14 15 15 16 16 11 7 9 9 7 3 5 14 15 13 14 16 17 16 15 15
14 13 14 15 14 11 12 10 7 8 2 7 11 14 12 14 16 18 19 16 16 16
16 16 18 19 17 16 15 7 3 6 9 12 15 18 16 16 16 17 18 19 18 16
20 21 18 15 14 8 3 4 7 10 13 16 14 16 18 17 14 16 18 19 17 13
20 16 11 8 3 0 2 7 11 13 13 14 15 15 14 16 14 14 16 16 17 17
12 8 5 2 2 5 8 10 11 12 13 13 14 15 17 17 14 17 18 16 16 17
5 4 3 3 5 5 6 10 10 13 14 14 17 17 19 17 14 17 17 14 15 18
8 6 4 5 4 8 10 11 13 15 17 18 17 19 20 20 14 16 17 16 15 15
Wind_Direction
198 192 201 189 182 174 164 144 137 123 130 140 152 148 163 199 187 171 178 213 229 253
194 197 194 182 157 148 140 144 147 152 165 162 161 192 209 183 193 191 214 233 242 246
196 190 176 162 162 162 164 165 163 161 164 162 207 215 173 207 206 217 227 232 237 237
196 185 175 179 175 173 153 146 150 162 167 189 209 171 196 204 226 225 230 227 224 230
170 166 167 159 137 137 146 146 151 177 192 181 170 200 202 230 228 226 231 233 226 236
160 144 130 126 126 132 134 142 165 172 174 170 193 213 240 239 235 233 233 233 230 236
132 132 138 135 135 139 143 153 139 174 156 138 239 255 256 247 241 240 238 239 235 233
122 117 114 115 114 110 115 117 118 109 108 262 275 274 263 252 247 244 245 241 235 228
114 108 104 97 91 107 112 103 62 235 238 259 262 262 256 253 251 249 249 251 238 229
94 97 100 104 110 115 131 216 240 251 259 265 270 273 275 276 260 256 250 246 239 231
102 104 101 93 93 217 245 254 260 268 269 273 279 280 285 285 280 266 257 244 231 227
98 101 108 128 250 263 270 275 273 277 284 283 284 292 296 290 279 268 261 246 230 224
83 54 9 326 300 288 284 286 294 290 287 285 286 286 284 281 269 269 265 255 241 232
53 31 359 325 308 304 303 301 299 299 297 292 285 285 279 276 258 254 258 249 247 236